Year,Month,Day,Hour,Minute,Value (Times are PST for barometer in hPa)
2016,03,05,00,00,993.19
2016,03,05,00,01,993.15
2016,03,05,00,02,992.79
2016,03,05,00,03,992.82
2016,03,05,00,04,992.89
2016,03,05,00,05,992.69
2016,03,05,00,06,992.75
2016,03,05,00,07,992.75
2016,03,05,00,08,992.88
2016,03,05,00,09,992.69
2016,03,05,00,10,992.92
2016,03,05,00,11,992.69
2016,03,05,00,12,992.75
2016,03,05,00,13,992.42
2016,03,05,00,14,992.65
2016,03,05,00,15,992.68
2016,03,05,00,16,992.57
2016,03,05,00,17,992.45
2016,03,05,00,18,992.31
2016,03,05,00,19,992.01
2016,03,05,00,20,992.11
2016,03,05,00,21,992.13
2016,03,05,00,22,992.01
2016,03,05,00,23,991.90
2016,03,05,00,24,991.74
2016,03,05,00,25,992.01
2016,03,05,00,26,991.91
2016,03,05,00,27,991.81
2016,03,05,00,28,991.81
2016,03,05,00,29,991.79
2016,03,05,00,30,991.47
2016,03,05,00,32,991.64
2016,03,05,00,33,991.60
2016,03,05,00,34,991.50
2016,03,05,00,35,991.74
2016,03,05,00,37,991.57
2016,03,05,00,38,991.81
2016,03,05,00,39,991.86
2016,03,05,00,40,991.64
2016,03,05,00,41,991.81
2016,03,05,00,42,991.74
2016,03,05,00,43,991.74
2016,03,05,00,44,991.77
2016,03,05,00,45,991.77
2016,03,05,00,46,991.80
2016,03,05,00,47,991.64
2016,03,05,00,48,991.60
2016,03,05,00,49,991.69
2016,03,05,00,50,991.50
2016,03,05,00,51,991.46
2016,03,05,00,52,991.33
2016,03,05,00,53,991.09
2016,03,05,00,54,991.20
2016,03,05,00,55,991.16
2016,03,05,00,56,991.23
2016,03,05,00,57,991.36
2016,03,05,00,58,991.23
2016,03,05,00,59,991.20
2016,03,05,01,00,991.23
2016,03,05,01,01,991.07
2016,03,05,01,02,991.26
2016,03,05,01,03,990.82
2016,03,05,01,04,991.33
2016,03,05,01,05,990.93
2016,03,05,01,06,991.06
2016,03,05,01,07,991.20
2016,03,05,01,08,991.19
2016,03,05,01,09,990.99
2016,03,05,01,10,991.23
2016,03,05,01,11,991.23
2016,03,05,01,12,991.26
2016,03,05,01,13,991.19
2016,03,05,01,14,991.06
2016,03,05,01,15,991.30
2016,03,05,01,16,991.38
2016,03,05,01,17,991.53
2016,03,05,01,18,991.20
2016,03,05,01,19,991.16
2016,03,05,01,20,991.16
2016,03,05,01,21,991.13
2016,03,05,01,22,991.03
2016,03,05,01,23,991.16
2016,03,05,01,24,991.08
2016,03,05,01,25,991.50
2016,03,05,01,26,991.30
2016,03,05,01,27,991.52
2016,03,05,01,28,991.33
2016,03,05,01,29,991.66
2016,03,05,01,30,991.53
2016,03,05,01,31,991.47
2016,03,05,01,32,991.50
2016,03,05,01,33,991.53
2016,03,05,01,34,991.70
2016,03,05,01,35,991.78
2016,03,05,01,36,991.94
2016,03,05,01,37,992.18
2016,03,05,01,38,992.01
2016,03,05,01,39,991.98
2016,03,05,01,40,992.04
2016,03,05,01,41,992.25
2016,03,05,01,42,992.25
2016,03,05,01,43,992.05
2016,03,05,01,44,992.21
2016,03,05,01,45,992.26
2016,03,05,01,46,992.43
2016,03,05,01,47,992.58
2016,03,05,01,48,992.15
2016,03,05,01,49,992.35
2016,03,05,01,50,992.89
2016,03,05,01,51,992.69
2016,03,05,01,52,992.58
2016,03,05,01,53,992.74
2016,03,05,01,54,993.06
2016,03,05,01,55,993.00
2016,03,05,01,56,993.16
2016,03,05,01,57,993.06
2016,03,05,01,58,993.19
2016,03,05,01,59,993.13
2016,03,05,02,00,993.16
2016,03,05,02,01,993.19
2016,03,05,02,02,993.16
2016,03,05,02,03,993.26
2016,03,05,02,04,993.33
2016,03,05,02,05,993.40
2016,03,05,02,06,993.36
2016,03,05,02,07,993.36
2016,03,05,02,08,993.36
2016,03,05,02,09,993.36
2016,03,05,02,10,993.36
2016,03,05,02,11,993.36
2016,03,05,02,12,993.47
2016,03,05,02,13,993.33
2016,03,05,02,14,993.46
2016,03,05,02,15,993.30
2016,03,05,02,16,993.43
2016,03,05,02,17,993.43
2016,03,05,02,18,993.47
2016,03,05,02,19,993.47
2016,03,05,02,20,993.57
2016,03,05,02,21,993.50
2016,03,05,02,22,993.77
2016,03,05,02,23,993.78
2016,03,05,02,24,993.87
2016,03,05,02,25,993.87
2016,03,05,02,26,993.95
2016,03,05,02,27,994.04
2016,03,05,02,28,993.97
2016,03,05,02,29,994.04
2016,03,05,02,30,994.14
2016,03,05,02,31,994.14
2016,03,05,02,32,994.14
2016,03,05,02,33,994.12
2016,03,05,02,34,994.24
2016,03,05,02,35,994.24
2016,03,05,02,36,994.38
2016,03,05,02,37,994.41
2016,03,05,02,38,994.38
2016,03,05,02,39,994.45
2016,03,05,02,40,994.45
2016,03,05,02,41,994.58
2016,03,05,02,42,994.52
2016,03,05,02,43,994.62
2016,03,05,02,44,994.62
2016,03,05,02,45,994.62
2016,03,05,02,46,994.65
2016,03,05,02,47,994.58
2016,03,05,02,48,994.68
2016,03,05,02,49,994.68
2016,03,05,02,50,994.65
2016,03,05,02,51,994.63
2016,03,05,02,52,994.75
2016,03,05,02,53,994.75
2016,03,05,02,54,994.79
2016,03,05,02,55,994.85
2016,03,05,02,56,994.89
2016,03,05,02,57,994.89
2016,03,05,02,58,994.89
2016,03,05,02,59,994.89
2016,03,05,03,00,994.89
2016,03,05,03,01,994.96
2016,03,05,03,02,994.99
2016,03,05,03,03,995.09
2016,03,05,03,04,995.12
2016,03,05,03,05,995.12
2016,03,05,03,06,995.23
2016,03,05,03,07,995.23
2016,03,05,03,08,995.16
2016,03,05,03,09,995.19
2016,03,05,03,10,995.23
2016,03,05,03,11,995.23
2016,03,05,03,12,995.26
2016,03,05,03,13,995.26
2016,03,05,03,14,995.29
2016,03,05,03,15,995.36
2016,03,05,03,16,995.36
2016,03,05,03,17,995.40
2016,03,05,03,18,995.40
2016,03,05,03,19,995.36
2016,03,05,03,20,995.33
2016,03,05,03,21,995.36
2016,03,05,03,22,995.36
2016,03,05,03,23,995.40
2016,03,05,03,24,995.36
2016,03,05,03,25,995.46
2016,03,05,03,26,995.46
2016,03,05,03,27,995.53
2016,03,05,03,28,995.56
2016,03,05,03,29,995.56
2016,03,05,03,30,995.56
2016,03,05,03,31,995.63
2016,03,05,03,32,995.63
2016,03,05,03,33,995.63
2016,03,05,03,34,995.67
2016,03,05,03,35,995.70
2016,03,05,03,36,995.73
2016,03,05,03,37,995.67
2016,03,05,03,38,995.77
2016,03,05,03,39,995.77
2016,03,05,03,40,995.84
2016,03,05,03,41,995.80
2016,03,05,03,42,995.80
2016,03,05,03,43,995.84
2016,03,05,03,44,995.80
2016,03,05,03,45,995.87
2016,03,05,03,46,995.87
2016,03,05,03,47,995.90
2016,03,05,03,48,995.97
2016,03,05,03,49,995.94
2016,03,05,03,50,995.90
2016,03,05,03,51,995.94
2016,03,05,03,52,995.94
2016,03,05,03,53,995.88
2016,03,05,03,54,995.97
2016,03,05,03,55,995.94
2016,03,05,03,56,995.94
2016,03,05,03,57,995.94
2016,03,05,03,58,995.97
2016,03,05,03,59,996.07
2016,03,05,04,00,996.01
2016,03,05,04,01,996.01
2016,03,05,04,02,996.01
2016,03,05,04,03,996.04
2016,03,05,04,04,995.97
2016,03,05,04,05,995.97
2016,03,05,04,06,996.04
2016,03,05,04,07,996.07
2016,03,05,04,08,996.11
2016,03,05,04,09,996.04
2016,03,05,04,10,996.04
2016,03,05,04,11,996.07
2016,03,05,04,12,996.07
2016,03,05,04,13,996.14
2016,03,05,04,14,996.17
2016,03,05,04,15,996.14
2016,03,05,04,16,996.17
2016,03,05,04,17,996.17
2016,03,05,04,18,996.28
2016,03,05,04,19,996.28
2016,03,05,04,20,996.34
2016,03,05,04,21,996.34
2016,03,05,04,22,996.34
2016,03,05,04,23,996.38
2016,03,05,04,24,996.41
2016,03,05,04,25,996.41
2016,03,05,04,26,996.48
2016,03,05,04,27,996.45
2016,03,05,04,28,996.45
2016,03,05,04,29,996.51
2016,03,05,04,30,996.48
2016,03,05,04,31,996.48
2016,03,05,04,32,996.55
2016,03,05,04,33,996.58
2016,03,05,04,34,996.61
2016,03,05,04,35,996.65
2016,03,05,04,36,996.68
2016,03,05,04,37,996.68
2016,03,05,04,38,996.72
2016,03,05,04,39,996.72
2016,03,05,04,40,996.75
2016,03,05,04,41,996.72
2016,03,05,04,42,996.82
2016,03,05,04,43,996.82
2016,03,05,04,44,996.82
2016,03,05,04,45,996.78
2016,03,05,04,46,996.92
2016,03,05,04,47,996.85
2016,03,05,04,48,996.89
2016,03,05,04,49,996.85
2016,03,05,04,50,996.85
2016,03,05,04,51,996.89
2016,03,05,04,52,996.92
2016,03,05,04,53,996.95
2016,03,05,04,54,996.99
2016,03,05,04,55,996.96
2016,03,05,04,56,997.12
2016,03,05,04,57,997.16
2016,03,05,04,58,997.16
2016,03,05,04,59,997.19
2016,03,05,05,00,997.16
2016,03,05,05,01,997.16
2016,03,05,05,02,997.26
2016,03,05,05,03,997.29
2016,03,05,05,04,997.29
2016,03,05,05,05,997.29
2016,03,05,05,06,997.33
2016,03,05,05,07,997.26
2016,03,05,05,08,997.29
2016,03,05,05,09,997.33
2016,03,05,05,10,997.29
2016,03,05,05,11,997.43
2016,03,05,05,12,997.46
2016,03,05,05,13,997.46
2016,03,05,05,14,997.43
2016,03,05,05,15,997.50
2016,03,05,05,16,997.50
2016,03,05,05,17,997.50
2016,03,05,05,18,997.53
2016,03,05,05,19,997.50
2016,03,05,05,20,997.53
2016,03,05,05,21,997.60
2016,03,05,05,22,997.53
2016,03,05,05,23,997.66
2016,03,05,05,24,997.66
2016,03,05,05,25,997.70
2016,03,05,05,26,997.63
2016,03,05,05,27,997.66
2016,03,05,05,28,997.70
2016,03,05,05,29,997.66
2016,03,05,05,30,997.66
2016,03,05,05,31,997.63
2016,03,05,05,32,997.70
2016,03,05,05,33,997.56
2016,03,05,05,34,997.56
2016,03,05,05,35,997.66
2016,03,05,05,36,997.56
2016,03,05,05,37,997.60
2016,03,05,05,38,997.53
2016,03,05,05,39,997.56
2016,03,05,05,40,997.56
2016,03,05,05,41,997.53
2016,03,05,05,42,997.53
2016,03,05,05,43,997.60
2016,03,05,05,44,997.66
2016,03,05,05,45,997.63
2016,03,05,05,46,997.66
2016,03,05,05,47,997.70
2016,03,05,05,48,997.77
2016,03,05,05,49,997.73
2016,03,05,05,50,997.80
2016,03,05,05,51,997.80
2016,03,05,05,52,997.77
2016,03,05,05,53,997.80
2016,03,05,05,54,997.77
2016,03,05,05,55,997.77
2016,03,05,05,56,997.77
2016,03,05,05,57,997.77
2016,03,05,05,58,997.77
2016,03,05,05,59,997.83
2016,03,05,06,00,997.77
2016,03,05,06,01,997.83
2016,03,05,06,02,997.83
2016,03,05,06,03,997.90
2016,03,05,06,04,997.94
2016,03,05,06,05,997.87
2016,03,05,06,06,997.87
2016,03,05,06,07,997.87
2016,03,05,06,08,997.97
2016,03,05,06,09,998.00
2016,03,05,06,10,998.00
2016,03,05,06,11,998.00
2016,03,05,06,12,998.07
2016,03,05,06,13,998.14
2016,03,05,06,14,998.14
2016,03,05,06,15,998.17
2016,03,05,06,16,998.22
2016,03,05,06,17,998.31
2016,03,05,06,18,998.34
2016,03,05,06,19,998.34
2016,03,05,06,20,998.34
2016,03,05,06,21,998.34
2016,03,05,06,22,998.38
2016,03,05,06,23,998.38
2016,03,05,06,24,998.41
2016,03,05,06,25,998.38
2016,03,05,06,26,998.44
2016,03,05,06,27,998.41
2016,03,05,06,28,998.38
2016,03,05,06,29,998.38
2016,03,05,06,30,998.38
2016,03,05,06,31,998.41
2016,03,05,06,32,998.38
2016,03,05,06,33,998.41
2016,03,05,06,34,998.41
2016,03,05,06,35,998.48
2016,03,05,06,36,998.48
2016,03,05,06,37,998.51
2016,03,05,06,38,998.48
2016,03,05,06,39,998.48
2016,03,05,06,40,998.54
2016,03,05,06,41,998.58
2016,03,05,06,42,998.54
2016,03,05,06,43,998.58
2016,03,05,06,44,998.58
2016,03,05,06,45,998.58
2016,03,05,06,46,998.61
2016,03,05,06,47,998.65
2016,03,05,06,48,998.68
2016,03,05,06,49,998.71
2016,03,05,06,50,998.75
2016,03,05,06,51,998.75
2016,03,05,06,52,998.68
2016,03,05,06,53,998.75
2016,03,05,06,54,998.78
2016,03,05,06,55,998.78
2016,03,05,06,56,998.68
2016,03,05,06,57,998.82
2016,03,05,06,58,998.82
2016,03,05,06,59,998.92
2016,03,05,07,00,998.95
2016,03,05,07,01,998.92
2016,03,05,07,02,998.88
2016,03,05,07,03,998.99
2016,03,05,07,04,998.99
2016,03,05,07,05,998.95
2016,03,05,07,06,998.95
2016,03,05,07,07,998.92
2016,03,05,07,08,998.92
2016,03,05,07,09,998.92
2016,03,05,07,10,998.99
2016,03,05,07,11,998.99
2016,03,05,07,12,999.02
2016,03,05,07,13,998.95
2016,03,05,07,14,998.99
2016,03,05,07,15,998.99
2016,03,05,07,16,998.95
2016,03,05,07,17,998.92
2016,03,05,07,18,998.92
2016,03,05,07,19,998.99
2016,03,05,07,20,998.95
2016,03,05,07,21,999.02
2016,03,05,07,22,999.02
2016,03,05,07,23,999.05
2016,03,05,07,24,999.05
2016,03,05,07,25,999.09
2016,03,05,07,26,999.09
2016,03,05,07,27,999.15
2016,03,05,07,28,999.19
2016,03,05,07,29,999.22
2016,03,05,07,30,999.22
2016,03,05,07,31,999.22
2016,03,05,07,32,999.22
2016,03,05,07,33,999.26
2016,03,05,07,34,999.22
2016,03,05,07,35,999.22
2016,03,05,07,36,999.22
2016,03,05,07,37,999.22
2016,03,05,07,38,999.19
2016,03,05,07,39,999.22
2016,03,05,07,40,999.22
2016,03,05,07,41,999.19
2016,03,05,07,42,999.19
2016,03,05,07,43,999.19
2016,03,05,07,44,999.15
2016,03,05,07,45,999.15
2016,03,05,07,46,999.19
2016,03,05,07,47,999.15
2016,03,05,07,48,999.15
2016,03,05,07,49,999.15
2016,03,05,07,50,999.12
2016,03,05,07,51,999.19
2016,03,05,07,52,999.19
2016,03,05,07,53,999.15
2016,03,05,07,54,999.15
2016,03,05,07,55,999.12
2016,03,05,07,56,999.12
2016,03,05,07,57,999.15
2016,03,05,07,58,999.09
2016,03,05,07,59,999.09
2016,03,05,08,00,999.09
2016,03,05,08,01,999.05
2016,03,05,08,02,999.09
2016,03,05,08,03,999.12
2016,03,05,08,04,999.12
2016,03,05,08,05,999.15
2016,03,05,08,06,999.15
2016,03,05,08,07,999.19
2016,03,05,08,08,999.12
2016,03,05,08,09,999.22
2016,03,05,08,10,999.19
2016,03,05,08,11,999.26
2016,03,05,08,12,999.26
2016,03,05,08,13,999.32
2016,03,05,08,14,999.29
2016,03,05,08,15,999.26
2016,03,05,08,16,999.32
2016,03,05,08,17,999.36
2016,03,05,08,18,999.26
2016,03,05,08,19,999.36
2016,03,05,08,20,999.39
2016,03,05,08,21,999.39
2016,03,05,08,22,999.39
2016,03,05,08,23,999.39
2016,03,05,08,24,999.43
2016,03,05,08,25,999.43
2016,03,05,08,26,999.49
2016,03,05,08,27,999.49
2016,03,05,08,28,999.49
2016,03,05,08,29,999.46
2016,03,05,08,30,999.46
2016,03,05,08,31,999.49
2016,03,05,08,32,999.39
2016,03,05,08,33,999.39
2016,03,05,08,34,999.39
2016,03,05,08,35,999.39
2016,03,05,08,36,999.49
2016,03,05,08,37,999.46
2016,03,05,08,38,999.53
2016,03,05,08,39,999.53
2016,03,05,08,40,999.53
2016,03,05,08,41,999.53
2016,03,05,08,42,999.53
2016,03,05,08,43,999.53
2016,03,05,08,44,999.59
2016,03,05,08,45,999.56
2016,03,05,08,46,999.59
2016,03,05,08,47,999.59
2016,03,05,08,48,999.66
2016,03,05,08,49,999.63
2016,03,05,08,50,999.63
2016,03,05,08,51,999.66
2016,03,05,08,52,999.63
2016,03,05,08,53,999.66
2016,03,05,08,54,999.66
2016,03,05,08,55,999.70
2016,03,05,08,56,999.66
2016,03,05,08,57,999.66
2016,03,05,08,58,999.66
2016,03,05,08,59,999.66
2016,03,05,09,00,999.73
2016,03,05,09,01,999.70
2016,03,05,09,02,999.70
2016,03,05,09,03,999.66
2016,03,05,09,04,999.70
2016,03,05,09,05,999.66
2016,03,05,09,06,999.70
2016,03,05,09,07,999.73
2016,03,05,09,08,999.70
2016,03,05,09,09,999.70
2016,03,05,09,10,999.80
2016,03,05,09,11,999.80
2016,03,05,09,12,999.80
2016,03,05,09,13,999.80
2016,03,05,09,14,999.76
2016,03,05,09,15,999.80
2016,03,05,09,16,999.83
2016,03,05,09,17,999.83
2016,03,05,09,18,999.87
2016,03,05,09,19,999.83
2016,03,05,09,20,999.80
2016,03,05,09,21,999.90
2016,03,05,09,22,999.83
2016,03,05,09,23,999.87
2016,03,05,09,24,999.90
2016,03,05,09,25,999.87
2016,03,05,09,26,999.93
2016,03,05,09,27,999.90
2016,03,05,09,28,999.83
2016,03,05,09,29,999.87
2016,03,05,09,30,999.87
2016,03,05,09,31,999.90
2016,03,05,09,32,999.90
2016,03,05,09,33,999.90
2016,03,05,09,34,999.83
2016,03,05,09,35,999.87
2016,03,05,09,36,999.83
2016,03,05,09,37,999.87
2016,03,05,09,38,999.76
2016,03,05,09,39,999.87
2016,03,05,09,40,999.83
2016,03,05,09,41,999.80
2016,03,05,09,42,999.80
2016,03,05,09,43,999.76
2016,03,05,09,44,999.80
2016,03,05,09,45,999.80
2016,03,05,09,46,999.76
2016,03,05,09,47,999.76
2016,03,05,09,48,999.73
2016,03,05,09,49,999.70
2016,03,05,09,50,999.66
2016,03,05,09,51,999.70
2016,03,05,09,52,999.70
2016,03,05,09,53,999.66
2016,03,05,09,54,999.66
2016,03,05,09,55,999.63
2016,03,05,09,56,999.66
2016,03,05,09,57,999.63
2016,03,05,09,58,999.70
2016,03,05,09,59,999.66
2016,03,05,10,00,999.66
2016,03,05,10,01,999.66
2016,03,05,10,02,999.70
2016,03,05,10,03,999.66
2016,03,05,10,04,999.66
2016,03,05,10,05,999.70
2016,03,05,10,06,999.63
2016,03,05,10,07,999.63
2016,03,05,10,08,999.63
2016,03,05,10,09,999.63
2016,03,05,10,10,999.63
2016,03,05,10,11,999.63
2016,03,05,10,12,999.63
2016,03,05,10,13,999.70
2016,03,05,10,14,999.63
2016,03,05,10,15,999.59
2016,03,05,10,16,999.56
2016,03,05,10,17,999.59
2016,03,05,10,18,999.59
2016,03,05,10,19,999.56
2016,03,05,10,20,999.56
2016,03,05,10,21,999.53
2016,03,05,10,22,999.43
2016,03,05,10,23,999.46
2016,03,05,10,24,999.39
2016,03,05,10,25,999.39
2016,03,05,10,26,999.32
2016,03,05,10,27,999.39
2016,03,05,10,28,999.39
2016,03,05,10,29,999.39
2016,03,05,10,30,999.39
2016,03,05,10,31,999.46
2016,03,05,10,32,999.53
2016,03,05,10,33,999.59
2016,03,05,10,34,999.59
2016,03,05,10,35,999.56
2016,03,05,10,36,999.59
2016,03,05,10,37,999.56
2016,03,05,10,38,999.46
2016,03,05,10,39,999.49
2016,03,05,10,40,999.49
2016,03,05,10,41,999.49
2016,03,05,10,42,999.49
2016,03,05,10,43,999.53
2016,03,05,10,44,999.59
2016,03,05,10,45,999.59
2016,03,05,10,46,999.70
2016,03,05,10,47,999.70
2016,03,05,10,48,999.70
2016,03,05,10,49,999.73
2016,03,05,10,50,999.73
2016,03,05,10,51,999.80
2016,03,05,10,52,999.80
2016,03,05,10,53,999.90
2016,03,05,10,54,999.97
2016,03,05,10,55,999.87
2016,03,05,10,56,999.90
2016,03,05,10,57,999.93
2016,03,05,10,58,999.90
2016,03,05,10,59,999.83
2016,03,05,11,00,999.83
2016,03,05,11,01,999.87
2016,03,05,11,02,999.87
2016,03,05,11,03,999.87
2016,03,05,11,04,999.87
2016,03,05,11,05,999.87
2016,03,05,11,06,999.83
2016,03,05,11,07,999.90
2016,03,05,11,08,999.83
2016,03,05,11,09,999.87
2016,03,05,11,10,999.90
2016,03,05,11,11,999.80
2016,03,05,11,12,999.83
2016,03,05,11,13,999.87
2016,03,05,11,14,999.80
2016,03,05,11,15,999.90
2016,03,05,11,16,999.87
2016,03,05,11,17,999.93
2016,03,05,11,18,999.93
2016,03,05,11,19,999.90
2016,03,05,11,20,999.97
2016,03,05,11,21,999.90
2016,03,05,11,22,999.93
2016,03,05,11,23,999.97
2016,03,05,11,24,999.90
2016,03,05,11,25,1000.00
2016,03,05,11,26,999.97
2016,03,05,11,27,999.93
2016,03,05,11,28,999.90
2016,03,05,11,29,999.90
2016,03,05,11,30,999.93
2016,03,05,11,31,999.87
2016,03,05,11,32,999.87
2016,03,05,11,33,999.92
2016,03,05,11,34,999.83
2016,03,05,11,35,999.76
2016,03,05,11,36,999.80
2016,03,05,11,37,999.73
2016,03,05,11,38,999.70
2016,03,05,11,39,999.70
2016,03,05,11,40,999.70
2016,03,05,11,41,999.70
2016,03,05,11,42,999.66
2016,03,05,11,43,999.70
2016,03,05,11,44,999.73
2016,03,05,11,45,999.80
2016,03,05,11,46,999.83
2016,03,05,11,47,999.80
2016,03,05,11,48,999.96
2016,03,05,11,49,1000.03
2016,03,05,11,50,1000.10
2016,03,05,11,51,1000.20
2016,03,05,11,52,1000.31
2016,03,05,11,53,1000.24
2016,03,05,11,54,1000.34
2016,03,05,11,55,1000.31
2016,03,05,11,56,1000.37
2016,03,05,11,57,1000.37
2016,03,05,11,58,1000.31
2016,03,05,11,59,1000.27
2016,03,05,12,00,1000.17
2016,03,05,12,01,1000.14
2016,03,05,12,02,1000.03
2016,03,05,12,03,999.90
2016,03,05,12,04,999.87
2016,03,05,12,05,999.80
2016,03,05,12,06,999.73
2016,03,05,12,07,999.73
2016,03,05,12,08,999.66
2016,03,05,12,09,999.63
2016,03,05,12,10,999.49
2016,03,05,12,11,999.49
2016,03,05,12,12,999.43
2016,03,05,12,13,999.39
2016,03,05,12,14,999.43
2016,03,05,12,15,999.43
2016,03,05,12,16,999.39
2016,03,05,12,17,999.36
2016,03,05,12,18,999.35
2016,03,05,12,19,999.26
2016,03,05,12,20,999.22
2016,03,05,12,21,999.11
2016,03,05,12,22,999.02
2016,03,05,12,23,999.05
2016,03,05,12,24,999.02
2016,03,05,12,25,999.02
2016,03,05,12,26,999.02
2016,03,05,12,27,998.95
2016,03,05,12,28,998.92
2016,03,05,12,29,998.85
2016,03,05,12,30,998.82
2016,03,05,12,31,998.75
2016,03,05,12,32,998.78
2016,03,05,12,33,998.68
2016,03,05,12,34,998.65
2016,03,05,12,35,998.61
2016,03,05,12,36,998.51
2016,03,05,12,37,998.44
2016,03,05,12,38,998.48
2016,03,05,12,39,998.38
2016,03,05,12,40,998.38
2016,03,05,12,41,998.40
2016,03,05,12,42,998.27
2016,03,05,12,43,998.24
2016,03,05,12,44,998.31
2016,03,05,12,45,998.24
2016,03,05,12,46,998.27
2016,03,05,12,47,998.27
2016,03,05,12,48,998.27
2016,03,05,12,49,998.38
2016,03,05,12,50,998.34
2016,03,05,12,51,998.44
2016,03,05,12,52,998.41
2016,03,05,12,53,998.44
2016,03,05,12,54,998.38
2016,03,05,12,55,998.34
2016,03,05,12,56,998.31
2016,03,05,12,57,998.38
2016,03,05,12,58,998.34
2016,03,05,12,59,998.34
2016,03,05,13,00,998.31
2016,03,05,13,01,998.30
2016,03,05,13,02,998.21
2016,03,05,13,03,998.21
2016,03,05,13,04,998.14
2016,03,05,13,05,998.07
2016,03,05,13,06,998.07
2016,03,05,13,07,998.07
2016,03,05,13,08,998.00
2016,03,05,13,09,997.94
2016,03,05,13,10,997.94
2016,03,05,13,11,997.94
2016,03,05,13,12,997.83
2016,03,05,13,13,997.87
2016,03,05,13,14,997.83
2016,03,05,13,15,997.87
2016,03,05,13,16,997.87
2016,03,05,13,17,997.90
2016,03,05,13,18,997.90
2016,03,05,13,19,997.87
2016,03,05,13,20,997.83
2016,03,05,13,21,997.80
2016,03,05,13,22,997.87
2016,03,05,13,23,997.87
2016,03,05,13,24,997.87
2016,03,05,13,25,997.83
2016,03,05,13,26,997.77
2016,03,05,13,27,997.73
2016,03,05,13,28,997.70
2016,03,05,13,29,997.73
2016,03,05,13,30,997.70
2016,03,05,13,31,997.60
2016,03,05,13,32,997.66
2016,03,05,13,33,997.66
2016,03,05,13,34,997.60
2016,03,05,13,35,997.53
2016,03,05,13,36,997.50
2016,03,05,13,37,997.46
2016,03,05,13,38,997.46
2016,03,05,13,39,997.43
2016,03,05,13,40,997.39
2016,03,05,13,41,997.43
2016,03,05,13,42,997.39
2016,03,05,13,43,997.36
2016,03,05,13,44,997.29
2016,03,05,13,45,997.29
2016,03,05,13,46,997.22
2016,03,05,13,47,997.16
2016,03,05,13,48,997.16
2016,03,05,13,49,997.12
2016,03,05,13,50,997.09
2016,03,05,13,51,997.02
2016,03,05,13,52,997.02
2016,03,05,13,53,996.99
2016,03,05,13,54,996.89
2016,03,05,13,55,996.85
2016,03,05,13,56,996.85
2016,03,05,13,57,996.78
2016,03,05,13,58,996.78
2016,03,05,13,59,996.78
2016,03,05,14,00,996.72
2016,03,05,14,01,996.65
2016,03,05,14,02,996.61
2016,03,05,14,03,996.58
2016,03,05,14,04,996.47
2016,03,05,14,05,996.38
2016,03,05,14,06,996.31
2016,03,05,14,07,996.28
2016,03,05,14,08,996.17
2016,03,05,14,09,996.11
2016,03,05,14,10,996.04
2016,03,05,14,11,996.01
2016,03,05,14,12,995.90
2016,03,05,14,13,995.90
2016,03,05,14,14,995.87
2016,03,05,14,15,995.87
2016,03,05,14,16,995.84
2016,03,05,14,17,995.80
2016,03,05,14,18,995.73
2016,03,05,14,19,995.80
2016,03,05,14,20,995.77
2016,03,05,14,21,995.70
2016,03,05,14,22,995.63
2016,03,05,14,23,995.67
2016,03,05,14,24,995.63
2016,03,05,14,25,995.63
2016,03,05,14,26,995.60
2016,03,05,14,27,995.60
2016,03,05,14,28,995.46
2016,03,05,14,29,995.43
2016,03,05,14,30,995.36
2016,03,05,14,31,995.43
2016,03,05,14,32,995.36
2016,03,05,14,33,995.33
2016,03,05,14,34,995.26
2016,03,05,14,35,995.29
2016,03,05,14,36,995.19
2016,03,05,14,37,995.16
2016,03,05,14,38,995.16
2016,03,05,14,39,995.12
2016,03,05,14,40,995.12
2016,03,05,14,41,995.06
2016,03,05,14,42,994.96
2016,03,05,14,43,994.89
2016,03,05,14,44,994.89
2016,03,05,14,45,994.85
2016,03,05,14,46,994.79
2016,03,05,14,47,994.82
2016,03,05,14,48,994.72
2016,03,05,14,49,994.75
2016,03,05,14,50,994.68
2016,03,05,14,51,994.58
2016,03,05,14,52,994.58
2016,03,05,14,53,994.54
2016,03,05,14,54,994.45
2016,03,05,14,55,994.41
2016,03,05,14,56,994.38
2016,03,05,14,57,994.28
2016,03,05,14,58,994.18
2016,03,05,14,59,994.18
2016,03,05,15,00,994.18
2016,03,05,15,01,994.18
2016,03,05,15,02,994.18
2016,03,05,15,03,994.11
2016,03,05,15,04,994.04
2016,03,05,15,05,994.01
2016,03,05,15,06,993.94
2016,03,05,15,07,993.87
2016,03,05,15,08,993.87
2016,03,05,15,09,993.87
2016,03,05,15,10,993.87
2016,03,05,15,11,993.80
2016,03,05,15,12,993.74
2016,03,05,15,13,993.70
2016,03,05,15,14,993.63
2016,03,05,15,15,993.57
2016,03,05,15,16,993.57
2016,03,05,15,17,993.50
2016,03,05,15,18,993.43
2016,03,05,15,19,993.43
2016,03,05,15,20,993.47
2016,03,05,15,21,993.43
2016,03,05,15,22,993.43
2016,03,05,15,23,993.40
2016,03,05,15,24,993.33
2016,03,05,15,25,993.30
2016,03,05,15,26,993.19
2016,03,05,15,27,993.13
2016,03,05,15,28,993.13
2016,03,05,15,29,993.09
2016,03,05,15,30,993.06
2016,03,05,15,31,993.06
2016,03,05,15,32,993.06
2016,03,05,15,33,993.03
2016,03,05,15,34,992.99
2016,03,05,15,35,992.92
2016,03,05,15,36,992.82
2016,03,05,15,37,992.75
2016,03,05,15,38,992.72
2016,03,05,15,39,992.62
2016,03,05,15,40,992.55
2016,03,05,15,41,992.52
2016,03,05,15,42,992.48
2016,03,05,15,43,992.42
2016,03,05,15,44,992.42
2016,03,05,15,45,992.35
2016,03,05,15,46,992.31
2016,03,05,15,47,992.25
2016,03,05,15,48,992.25
2016,03,05,15,49,992.21
2016,03,05,15,50,992.18
2016,03,05,15,51,992.14
2016,03,05,15,52,992.04
2016,03,05,15,53,992.04
2016,03,05,15,54,991.98
2016,03,05,15,55,991.94
2016,03,05,15,56,991.94
2016,03,05,15,57,991.91
2016,03,05,15,58,991.77
2016,03,05,15,59,991.74
2016,03,05,16,00,991.74
2016,03,05,16,01,991.64
2016,03,05,16,02,991.64
2016,03,05,16,03,991.57
2016,03,05,16,04,991.49
2016,03,05,16,05,991.40
2016,03,05,16,06,991.37
2016,03,05,16,07,991.33
2016,03,05,16,08,991.33
2016,03,05,16,09,991.37
2016,03,05,16,10,991.33
2016,03,05,16,11,991.30
2016,03,05,16,12,991.30
2016,03,05,16,13,991.26
2016,03,05,16,14,991.33
2016,03,05,16,15,991.30
2016,03,05,16,16,991.26
2016,03,05,16,17,991.20
2016,03,05,16,18,991.20
2016,03,05,16,19,991.23
2016,03,05,16,20,991.16
2016,03,05,16,21,991.13
2016,03,05,16,22,991.09
2016,03,05,16,23,990.99
2016,03,05,16,24,990.89
2016,03,05,16,25,990.86
2016,03,05,16,26,990.86
2016,03,05,16,27,990.86
2016,03,05,16,28,990.82
2016,03,05,16,29,990.79
2016,03,05,16,30,990.72
2016,03,05,16,31,990.65
2016,03,05,16,32,990.69
2016,03,05,16,33,990.52
2016,03,05,16,34,990.45
2016,03,05,16,35,990.42
2016,03,05,16,36,990.38
2016,03,05,16,37,990.35